Newport News, VA

4:03 AM EDT on August 25, 2016 (GMT -0400)
Felker Army Air Field

Weather History for KFAF - October, 2012

Change the Weather History Date:

Monday, October 8, 2012

  Actual Average Record
Temperature  
Mean Temperature 53 °F -  
Max Temperature 54 °F 71 °F 87 °F (2007)
Min Temperature 51 °F 53 °F 42 °F (1999)
Degree Days  
Heating Degree Days 12    
Growing Degree Days 3 (Base 50)    
Moisture  
Dew Point 50 °F    
Average Humidity 89    
Maximum Humidity 94    
Minimum Humidity 75    
Precipitation  
Precipitation 0.42 in - - ()
Sea Level Pressure  
Sea Level Pressure 30.18 in    
Wind  
Wind Speed 8 mph (NNE)    
Max Wind Speed 12 mph    
Max Gust Speed 18 mph    
Visibility 9 miles    
Events Rain    
Averages and records for this station are not official NWS values.
T = Trace of Precipitation, MM = Missing Value Source: NWS Daily Summary

Daily Weather History Graph

Daily Weather History Graph

Search for Another Location

Airport or City:

Trip Planner

Search our weather history database for the weather conditions in past years. The results will help you decide how hot, cold, wet, or windy it might be!

Date:

Astronomy

Oct. 08, 2012 Rise Set
Actual Time 7:08 AM EDT 6:38 PM EDT
Civil Twilight 6:42 AM EDT 7:04 PM EDT
Nautical Twilight 6:12 AM EDT 7:34 PM EDT
Astronomical Twilight 5:41 AM EDT 8:04 PM EDT
Moon No Moon Rise 2:18 PM EDT (10/8)
Length of Visible Light 12h 22m
Length of Day
11h 30m
Waning Gibbous, 46% of the Moon is Illuminated
Oct 8
Waning Gibbous
Oct 15
New
Oct 21
First Quarter
Oct 29
Full
Nov 6
Last Quarter

Hourly Weather History & Observations

Time (EDT) Temp. Dew Point Humidity Pressure Visibility Wind Dir Wind Speed Gust Speed Precip Events Conditions
12:44 AM 53.6 °F 50.0 °F 88% 30.15 in 10.0 mi NNW 8.1 mph - N/A   Overcast
12:46 AM 53.6 °F 50.0 °F 88% 30.15 in 10.0 mi North 9.2 mph - N/A   Overcast
12:48 AM 53.6 °F 50.0 °F 88% 30.15 in 10.0 mi North 10.4 mph - N/A   Mostly Cloudy
12:55 AM 52.9 °F 49.3 °F 88% 30.16 in 10.0 mi North 6.9 mph 17.3 mph N/A   Mostly Cloudy
1:04 AM 51.8 °F 50.0 °F 94% 30.15 in 10.0 mi North 9.2 mph - N/A   Mostly Cloudy
1:08 AM 51.8 °F 50.0 °F 94% 30.15 in 10.0 mi North 9.2 mph - N/A   Mostly Cloudy
1:55 AM 52.2 °F 48.4 °F 87% 30.16 in 10.0 mi North 9.2 mph - N/A   Scattered Clouds
2:55 AM 52.2 °F 48.4 °F 87% 30.17 in 10.0 mi North 8.1 mph - N/A   Overcast
3:55 AM 52.3 °F 48.0 °F 85% 30.17 in 10.0 mi North 9.2 mph - N/A   Overcast
4:55 AM 52.2 °F 47.5 °F 84% 30.18 in 10.0 mi North 10.4 mph 17.3 mph N/A   Overcast
5:55 AM 51.4 °F 44.8 °F 78% 30.19 in 10.0 mi NNE 10.4 mph - N/A   Overcast
6:55 AM 51.3 °F 43.7 °F 75% 30.22 in 10.0 mi North 9.2 mph - N/A   Overcast
7:55 AM 51.1 °F 43.3 °F 75% 30.22 in 10.0 mi NNE 8.1 mph - N/A   Overcast
8:55 AM 51.1 °F 45.5 °F 81% 30.25 in 10.0 mi Variable 4.6 mph - N/A   Overcast
9:55 AM 52.0 °F 46.8 °F 82% 30.27 in 10.0 mi North 6.9 mph - N/A   Overcast
10:30 AM 53.6 °F 48.2 °F 82% 30.25 in 10.0 mi NE 4.6 mph - N/A   Light Drizzle
10:40 AM 53.6 °F 48.2 °F 82% 30.25 in 10.0 mi NE 4.6 mph - N/A   Overcast
10:55 AM 53.4 °F 48.0 °F 82% 30.24 in 10.0 mi NNE 4.6 mph - 0.00 in   Overcast
11:55 AM 54.3 °F 49.1 °F 83% 30.24 in 10.0 mi NNE 4.6 mph - N/A   Overcast
12:19 PM 55.4 °F 50.0 °F 82% 30.24 in 10.0 mi Calm Calm - N/A   Light Drizzle
12:37 PM 55.4 °F 50.0 °F 82% 30.25 in 10.0 mi Variable 5.8 mph - N/A Rain Light Rain
12:55 PM 54.3 °F 49.6 °F 84% 30.23 in 10.0 mi North 5.8 mph - 0.01 in   Light Drizzle
12:58 PM 53.6 °F 50.0 °F 88% 30.23 in 10.0 mi North 6.9 mph - N/A   Overcast
1:08 PM 53.6 °F 48.2 °F 82% 30.22 in 10.0 mi NNE 9.2 mph - N/A Rain Light Rain
1:48 PM 53.6 °F 50.0 °F 88% 30.21 in 10.0 mi Variable 6.9 mph - N/A   Overcast
1:55 PM 53.2 °F 49.6 °F 88% 30.20 in 10.0 mi North 10.4 mph - 0.00 in   Overcast
1:59 PM 53.6 °F 50.0 °F 88% 30.20 in 10.0 mi NNE 8.1 mph - N/A   Light Drizzle
2:14 PM 53.6 °F 50.0 °F 88% 30.17 in 10.0 mi NE 8.1 mph - N/A Rain Light Rain
2:36 PM 53.6 °F 50.0 °F 88% 30.18 in 10.0 mi North 9.2 mph - N/A   Mostly Cloudy
2:55 PM 53.1 °F 50.2 °F 90% 30.18 in 10.0 mi NNE 6.9 mph - 0.00 in Rain Light Rain
3:09 PM 53.6 °F 50.0 °F 88% 30.19 in 10.0 mi North 8.1 mph - N/A Rain Light Rain
3:12 PM 53.6 °F 50.0 °F 88% 30.19 in 10.0 mi North 9.2 mph - N/A Rain Light Rain
3:20 PM 53.6 °F 50.0 °F 88% 30.19 in 9.0 mi North 10.4 mph - N/A Rain Rain
3:21 PM 53.6 °F 50.0 °F 88% 30.19 in 8.0 mi North 11.5 mph 16.1 mph N/A Rain Light Rain
3:22 PM 53.6 °F 50.0 °F 88% 30.19 in 7.0 mi North 10.4 mph 16.1 mph N/A Rain Light Rain
3:31 PM 53.6 °F 50.0 °F 88% 30.20 in 7.0 mi North 9.2 mph - N/A Rain Rain
3:34 PM 53.6 °F 51.8 °F 94% 30.19 in 8.0 mi North 8.1 mph - N/A Rain Rain
3:37 PM 53.6 °F 50.0 °F 88% 30.17 in 6.0 mi NNE 10.4 mph - N/A Rain Rain
3:55 PM 52.3 °F 50.5 °F 94% 30.16 in 6.0 mi NNE 11.5 mph 18.4 mph 0.10 in Rain Rain
3:56 PM 51.8 °F 50.0 °F 94% 30.16 in 6.0 mi NNE 8.1 mph 18.4 mph N/A Rain Rain
4:38 PM 51.8 °F 50.0 °F 94% 30.17 in 5.0 mi NNE 8.1 mph - N/A Rain Rain
4:51 PM 51.8 °F 50.0 °F 94% 30.17 in 6.0 mi NNE 8.1 mph 16.1 mph N/A Rain Rain
4:53 PM 51.8 °F 50.0 °F 94% 30.17 in 6.0 mi NNE 10.4 mph 16.1 mph N/A Rain Rain
4:55 PM 52.3 °F 50.4 °F 93% 30.17 in 6.0 mi NNE 9.2 mph 16.1 mph 0.15 in Rain Rain
5:00 PM 51.8 °F 50.0 °F 94% 30.17 in 6.0 mi NNE 9.2 mph - N/A Rain Rain
5:52 PM 51.8 °F 50.0 °F 94% 30.15 in 10.0 mi NNE 10.4 mph 17.3 mph N/A Rain Light Rain
5:55 PM 51.6 °F 50.0 °F 94% 30.15 in 10.0 mi NNE 9.2 mph 17.3 mph 0.10 in Rain Light Rain
5:56 PM 51.8 °F 50.0 °F 94% 30.15 in 10.0 mi NNE 10.4 mph 17.3 mph N/A Rain Light Rain
6:00 PM 51.8 °F 50.0 °F 94% 30.15 in 10.0 mi NNE 10.4 mph 17.3 mph N/A Rain Light Rain
6:07 PM 51.8 °F 50.0 °F 94% 30.16 in 10.0 mi North 9.2 mph - N/A Rain Light Rain
6:11 PM 51.8 °F 50.0 °F 94% 30.17 in 8.0 mi North 10.4 mph - N/A Rain Rain
6:12 PM 51.8 °F 50.0 °F 94% 30.17 in 7.0 mi North 9.2 mph - N/A Rain Rain
6:16 PM 51.8 °F 50.0 °F 94% 30.17 in 7.0 mi North 10.4 mph - N/A Rain Rain
6:52 PM 51.8 °F 50.0 °F 94% 30.17 in 10.0 mi North 8.1 mph - N/A   Overcast
6:55 PM 51.8 °F 50.0 °F 94% 30.16 in 10.0 mi Variable 5.8 mph - 0.06 in   Overcast
7:01 PM 51.8 °F 50.0 °F 94% 30.16 in 10.0 mi NNE 5.8 mph - N/A   Overcast
7:55 PM 52.3 °F 50.7 °F 94% 30.15 in 10.0 mi Variable 4.6 mph - N/A   Overcast
8:25 PM 53.6 °F 51.8 °F 94% 30.16 in 10.0 mi North 4.6 mph - N/A Rain Light Rain
8:47 PM 53.6 °F 51.8 °F 94% 30.16 in 10.0 mi North 6.9 mph - N/A   Overcast
8:55 PM 53.2 °F 51.4 °F 94% 30.16 in 10.0 mi North 5.8 mph - 0.00 in   Overcast
9:01 PM 53.6 °F 51.8 °F 94% 30.15 in 10.0 mi North 5.8 mph - N/A   Light Drizzle
9:16 PM 53.6 °F 51.8 °F 94% 30.15 in 10.0 mi North 8.1 mph - N/A   Overcast
9:55 PM 54.0 °F 51.8 °F 92% 30.15 in 10.0 mi North 5.8 mph - 0.00 in   Overcast
10:38 PM 53.6 °F 51.8 °F 94% 30.14 in 10.0 mi Variable 4.6 mph - N/A   Light Drizzle
10:48 PM 53.6 °F 51.8 °F 94% 30.14 in 10.0 mi Calm Calm - N/A   Overcast
10:55 PM 54.0 °F 51.8 °F 92% 30.14 in 10.0 mi Variable 4.6 mph - 0.00 in   Overcast
11:26 PM 53.6 °F 51.8 °F 94% 30.14 in 10.0 mi NNE 6.9 mph - N/A   Overcast
11:55 PM 54.1 °F 52.2 °F 93% 30.12 in 10.0 mi North 6.9 mph - N/A   Overcast